Location: Newark
(44.2003°N, 3.2583°E)
Time: 11:46:14
(UTC+00:00)

SR - Pass Details

Date: 25 October 2019
Orbit: 574 x 882 km, 66.7° (Epoch: 17 November)

Event Time Altitude Azimuth Distance (km) Brightness Sun altitude
Rises 04:37:40 0° 331° (NNW) 3,447 - -17.9°
Exits shadow 04:38:06 - 332° (NNW) 3,294 ? -17.8°
Reaches altitude 10° 04:40:16 10° 338° (NNW) 2,529 ? -17.4°
Maximum altitude 04:45:54 44° 50° (NE) 1,211 ? -16.4°
Drops below altitude 10° 04:51:31 10° 122° (ESE) 2,520 ? -15.4°
Sets 04:54:06 0° 128° (SE) 3,434 ? -14.9°
